Location: Complexul Astronomic Baia Mare
(47.6577°N, 23.5639°E)
Time: 17:52:08
(UTC+03:00)

ISS - Pass Details

Date: 11 May 2017
Orbit: 402 x 409 km, 51.6° (Epoch: 24 May)

Event Time Altitude Azimuth Distance (km) Brightness Sun altitude
Exits shadow 03:05:06 11° 114° (ESE) 1,423 -1.1 -20.5°
Drops below altitude 10° 03:05:21 10° 110° (ESE) 1,461 -1.0 -20.5°
Sets 03:08:27 0° 78° (ENE) 2,323 0.6 -20.3°
